Location: Stockholm
(59.3293°N, 18.0686°E)
Time: 14:44:13
(UTC+02:00)

ISS - Visible Passes

Search period start: 30 March 2017 00:00
Search period end: 09 April 2017 00:00
Orbit: 399 x 409 km, 51.6° (Epoch: 30 March)

Date Brightness Start Highest point End Pass type
(mag) Time Alt. Az. Time Alt. Az. Time Alt. Az.
30 Mar -1.8 20:53:39 10° S 20:55:20 14° SSE 20:55:20 14° SSE visible
31 Mar -2.0 21:36:25 10° SW 21:38:05 18° S 21:38:05 18° S visible
01 Apr -2.0 20:44:28 10° SSW 20:46:44 18° SSE 20:48:01 14° SE visible
01 Apr -1.4 22:19:56 10° SW 22:20:40 14° SW 22:20:40 14° SW visible
02 Apr -2.3 21:27:43 10° SW 21:30:17 21° S 21:30:29 21° S visible
03 Apr -2.2 20:35:34 10° SW 20:38:05 20° S 20:40:13 12° SE visible
03 Apr -1.7 22:11:27 10° WSW 22:12:52 17° SW 22:12:52 17° SW visible
04 Apr -2.2 21:19:06 10° WSW 21:21:38 21° S 21:22:32 19° SSE visible
05 Apr -2.2 20:26:49 10° SW 20:29:24 21° S 20:31:59 10° SE visible
05 Apr -1.7 22:03:07 10° WSW 22:04:48 15° SSW 22:04:48 15° SSW visible
06 Apr -1.9 21:10:35 10° WSW 21:12:55 18° SSW 21:14:25 14° SSE visible
07 Apr -1.3 21:55:15 10° SW 21:56:18 11° SSW 21:56:38 11° SSW visible
08 Apr -1.5 21:02:15 10° WSW 21:04:06 14° SSW 21:05:57 10° SSE visible
